カタログに戻る

ECHO 1 DEB

METAL OBJ

運用中LEO
NORAD 53·DEBRIS·🇺🇸 United States

打ち上げ Aug 12, 1960 から Cape Canaveral Space Force Station

Loading…

次のパス (今後24時間)

TLE

最新Source: Space-Track

元期: Sep 14, 2026, 05:10 UTC

1 00053U 60009E   26257.21566642 -.00000088  00000-0 -29809-4 0  9997
2 00053  47.2770  67.6989 0098023 339.5538  20.1341 12.17412847946276

AllMySatでECHO 1 DEBをリアルタイム追跡

Download on the App Store